This is the latest recevied weather packets stored in our database for station/object SR6WXP. If no packets are shown the sender has not sent any weather packets the latest 1 day(s).
| Time | Temp. | Humidity | Pressure | Rain* | Wind** | Luminosity | Snow |
|---|---|---|---|---|---|---|---|
| 1777995562 | 29.44° C | 28% | 982.5 hPa | - | 2.68 m/s, 150° | - | - |
| 1777995320 | 29.44° C | 28% | 982.4 hPa | - | 2.24 m/s, 153° | - | - |
| 1777995080 | 30° C | 28% | 982.4 hPa | - | 3.58 m/s, 144° | - | - |
| 1777994840 | 30° C | 28% | 982.4 hPa | - | 4.02 m/s, 131° | - | - |
| 1777994600 | 30° C | 28% | 982.5 hPa | - | 3.13 m/s, 143° | - | - |
| 1777994360 | 30° C | 28% | 982.5 hPa | - | 3.13 m/s, 163° | - | - |
| 1777994118 | 30° C | 29% | 982.4 hPa | - | 3.58 m/s, 140° | - | - |
| 1777993878 | 30° C | 29% | 982.5 hPa | - | 1.79 m/s, 171° | - | - |
| 1777993638 | 30° C | 29% | 982.5 hPa | - | 2.24 m/s, 138° | - | - |
| 1777993390 | 30° C | 29% | 982.5 hPa | - | 2.68 m/s, 151° | - | - |
| 1777993149 | 29.44° C | 29% | 982.5 hPa | - | 2.68 m/s, 162° | - | - |
| 1777992907 | 29.44° C | 29% | 982.5 hPa | - | 2.24 m/s, 147° | - | - |
| 1777992666 | 29.44° C | 29% | 982.5 hPa | - | 2.68 m/s, 182° | - | - |
| 1777992426 | 29.44° C | 30% | 982.5 hPa | - | 3.58 m/s, 168° | - | - |
| 1777992186 | 28.89° C | 30% | 982.5 hPa | - | 2.68 m/s, 151° | - | - |
| 1777991946 | 28.89° C | 30% | 982.6 hPa | - | 3.58 m/s, 178° | - | - |
| 1777991704 | 28.89° C | 31% | 982.6 hPa | - | 3.58 m/s, 159° | - | - |
| 1777991462 | 28.33° C | 31% | 982.6 hPa | - | 2.68 m/s, 141° | - | - |
| 1777991222 | 28.33° C | 32% | 982.6 hPa | - | 3.13 m/s, 120° | - | - |
| 1777990982 | 27.78° C | 32% | 982.7 hPa | - | 4.02 m/s, 133° | - | - |
| 1777990742 | 27.22° C | 32% | 982.7 hPa | - | 2.68 m/s, 153° | - | - |
| 1777990499 | 27.22° C | 33% | 982.7 hPa | - | 3.58 m/s, 153° | - | - |
| 1777990259 | 26.67° C | 33% | 982.7 hPa | - | 2.68 m/s, 163° | - | - |
| 1777990019 | 26.11° C | 34% | 982.7 hPa | - | 2.68 m/s, 175° | - | - |
| 1777989779 | 26.11° C | 34% | 982.8 hPa | - | 3.13 m/s, 201° | - | - |
* Rain since midnight (hover to see other rain measurements)
** Current wind speed in m/s (hover to see current wind gust speed)